Time,TemperatureF,DewpointF,PressureIn,WindDirection,WindDirectionDegrees,WindSpeedMPH,WindSpeedGustMPH,Humidity,HourlyPrecipIn,Conditions,Clouds,dailyrainin,SoftwareType,DateUTC
2013-03-24 00:02:00,4.0,-1.0,30.03,SW,232,8.0,12.0,78,0.00,,,0.03,,2013-03-24 06:02:00,
2013-03-24 00:12:00,4.0,-1.0,30.03,SW,232,8.0,12.0,78,0.00,,,0.03,,2013-03-24 06:12:00,
2013-03-24 00:22:00,5.0,-1.0,30.04,SW,219,7.0,13.0,77,0.00,,,0.03,,2013-03-24 06:22:00,
2013-03-24 00:32:00,4.0,-2.0,30.03,SSW,207,7.0,11.0,76,0.00,,,0.03,,2013-03-24 06:32:00,
2013-03-24 00:42:00,4.0,-2.0,30.03,SSW,207,7.0,11.0,76,0.00,,,0.03,,2013-03-24 06:42:00,
2013-03-24 00:52:00,2.0,-3.0,30.04,SSW,213,7.0,12.0,78,0.00,,,0.03,,2013-03-24 06:52:00,
2013-03-24 01:02:00,4.0,-1.0,30.03,SW,235,7.0,12.0,79,0.00,,,0.03,,2013-03-24 07:02:00,
2013-03-24 01:12:00,4.0,-1.0,30.03,SW,235,7.0,12.0,79,0.00,,,0.03,,2013-03-24 07:12:00,
2013-03-24 01:22:00,1.0,-5.0,30.04,SSW,206,9.0,12.0,75,0.00,,,0.03,,2013-03-24 07:22:00,
2013-03-24 01:32:00,1.0,-4.0,30.04,SSW,211,5.0,9.0,78,0.00,,,0.03,,2013-03-24 07:32:00,
2013-03-24 01:42:00,1.0,-4.0,30.04,SSW,211,5.0,9.0,78,0.00,,,0.03,,2013-03-24 07:42:00,
2013-03-24 01:52:00,1.0,-4.0,30.04,SSW,213,5.0,11.0,80,0.00,,,0.03,,2013-03-24 07:52:00,
2013-03-24 02:03:00,3.0,-2.0,30.02,WSW,244,4.0,7.0,79,0.00,,,0.03,,2013-03-24 08:03:00,
2013-03-24 02:12:00,3.0,-2.0,30.02,WSW,244,4.0,7.0,79,0.00,,,0.03,,2013-03-24 08:12:00,
2013-03-24 02:22:00,4.0,-2.0,30.02,SW,230,4.0,9.0,77,0.00,,,0.03,,2013-03-24 08:22:00,
2013-03-24 02:32:00,3.0,-3.0,30.02,South,190,1.0,6.0,77,0.00,,,0.03,,2013-03-24 08:32:00,
2013-03-24 02:42:00,3.0,-3.0,30.02,South,190,1.0,6.0,77,0.00,,,0.03,,2013-03-24 08:42:00,
2013-03-24 02:52:00,1.0,-4.0,30.01,South,187,2.0,5.0,77,0.00,,,0.03,,2013-03-24 08:52:00,
2013-03-24 03:02:00,1.0,-4.0,30.01,South,185,2.0,5.0,78,0.00,,,0.03,,2013-03-24 09:02:00,
2013-03-24 03:12:00,1.0,-4.0,30.01,South,185,2.0,5.0,78,0.00,,,0.03,,2013-03-24 09:12:00,
2013-03-24 03:22:00,1.0,-4.0,30.00,SSW,202,0.0,4.0,79,0.00,,,0.03,,2013-03-24 09:22:00,
2013-03-24 03:33:00,2.0,-2.0,29.99,WNW,291,4.0,11.0,81,0.00,,,0.03,,2013-03-24 09:33:00,
2013-03-24 03:42:00,2.0,-2.0,29.99,WNW,291,4.0,11.0,81,0.00,,,0.03,,2013-03-24 09:42:00,
2013-03-24 03:52:00,6.0,1.0,29.99,NW,313,6.0,9.0,81,0.00,,,0.03,,2013-03-24 09:52:00,
2013-03-24 04:02:00,7.0,2.0,29.99,WNW,294,4.0,11.0,78,0.00,,,0.03,,2013-03-24 10:02:00,
2013-03-24 04:12:00,7.0,2.0,29.99,WNW,294,4.0,11.0,78,0.00,,,0.03,,2013-03-24 10:12:00,
2013-03-24 04:22:00,6.0,0.0,29.98,West,261,7.0,10.0,77,0.00,,,0.03,,2013-03-24 10:22:00,
2013-03-24 04:32:00,6.0,1.0,29.98,WSW,249,5.0,11.0,78,0.00,,,0.03,,2013-03-24 10:32:00,
2013-03-24 04:42:00,6.0,1.0,29.98,WSW,249,5.0,11.0,78,0.00,,,0.03,,2013-03-24 10:42:00,
2013-03-24 04:52:00,6.0,1.0,29.98,West,273,4.0,12.0,78,0.00,,,0.03,,2013-03-24 10:52:00,
2013-03-24 05:03:00,6.0,1.0,29.98,WNW,287,2.0,11.0,79,0.00,,,0.03,,2013-03-24 11:03:00,
2013-03-24 05:12:00,6.0,1.0,29.98,WNW,287,2.0,11.0,79,0.00,,,0.03,,2013-03-24 11:12:00,
2013-03-24 05:22:00,6.0,1.0,29.98,WSW,253,2.0,6.0,79,0.00,,,0.03,,2013-03-24 11:22:00,
2013-03-24 05:32:00,5.0,-1.0,29.96,SSE,167,0.0,6.0,77,0.00,,,0.03,,2013-03-24 11:32:00,
2013-03-24 05:42:00,5.0,-1.0,29.96,SSE,167,0.0,6.0,77,0.00,,,0.03,,2013-03-24 11:42:00,
2013-03-24 05:52:00,5.0,-1.0,29.98,South,182,6.0,10.0,77,0.00,,,0.03,,2013-03-24 11:52:00,
2013-03-24 06:02:00,5.0,0.0,29.98,South,178,6.0,11.0,78,0.00,,,0.03,,2013-03-24 12:02:00,
2013-03-24 06:12:00,5.0,0.0,29.98,South,178,6.0,11.0,78,0.00,,,0.03,,2013-03-24 12:12:00,
2013-03-24 06:22:00,4.0,-2.0,29.98,South,178,3.0,9.0,77,0.00,,,0.03,,2013-03-24 12:22:00,
2013-03-24 06:32:00,0.0,-5.0,30.00,South,177,5.0,12.0,77,0.00,,,0.03,,2013-03-24 12:32:00,
2013-03-24 06:42:00,0.0,-5.0,30.00,South,177,5.0,12.0,77,0.00,,,0.03,,2013-03-24 12:42:00,
2013-03-24 06:52:00,0.0,-5.0,30.00,South,181,0.0,4.0,80,0.00,,,0.03,,2013-03-24 12:52:00,
2013-03-24 07:02:00,1.0,-4.0,30.00,South,179,5.0,9.0,79,0.00,,,0.03,,2013-03-24 13:02:00,
2013-03-24 07:12:00,1.0,-4.0,30.00,South,179,5.0,9.0,79,0.00,,,0.03,,2013-03-24 13:12:00,
2013-03-24 07:22:00,2.0,-3.0,30.01,South,190,0.0,3.0,80,0.00,,,0.03,,2013-03-24 13:22:00,
2013-03-24 07:32:00,1.0,-4.0,30.01,SW,234,2.0,4.0,80,0.00,,,0.03,,2013-03-24 13:32:00,
2013-03-24 07:42:00,1.0,-4.0,30.01,SW,234,2.0,4.0,80,0.00,,,0.03,,2013-03-24 13:42:00,
2013-03-24 07:52:00,4.0,-1.0,30.01,SW,226,0.0,3.0,79,0.00,,,0.03,,2013-03-24 13:52:00,
2013-03-24 08:02:00,6.0,1.0,30.01,SSW,209,3.0,5.0,78,0.00,,,0.03,,2013-03-24 14:02:00,
2013-03-24 08:12:00,6.0,1.0,30.01,SSW,209,3.0,5.0,78,0.00,,,0.03,,2013-03-24 14:12:00,
2013-03-24 08:22:00,8.0,2.0,30.01,South,170,1.0,7.0,75,0.00,,,0.03,,2013-03-24 14:22:00,
2013-03-24 08:32:00,9.0,2.0,29.99,South,188,4.0,7.0,73,0.00,,,0.03,,2013-03-24 14:32:00,
2013-03-24 08:42:00,9.0,2.0,29.99,South,188,4.0,7.0,73,0.00,,,0.03,,2013-03-24 14:42:00,
2013-03-24 08:52:00,9.0,2.0,29.99,South,187,4.0,7.0,73,0.00,,,0.03,,2013-03-24 14:52:00,
2013-03-24 09:02:00,11.0,4.0,30.02,SSW,193,0.0,9.0,72,0.00,,,0.03,,2013-03-24 15:02:00,
2013-03-24 09:12:00,11.0,4.0,30.02,SSW,193,0.0,9.0,72,0.00,,,0.03,,2013-03-24 15:12:00,
2013-03-24 09:22:00,12.0,4.0,30.00,SSE,156,5.0,12.0,69,0.00,,,0.03,,2013-03-24 15:22:00,
2013-03-24 09:33:00,13.0,5.0,29.99,South,184,0.0,2.0,71,0.00,,,0.03,,2013-03-24 15:33:00,
2013-03-24 09:43:00,13.0,5.0,29.99,South,184,0.0,2.0,71,0.00,,,0.03,,2013-03-24 15:43:00,
2013-03-24 09:53:00,15.0,7.0,30.00,SE,138,0.0,0.0,70,0.00,,,0.03,,2013-03-24 15:53:00,
2013-03-24 10:02:00,16.0,6.0,30.00,West,279,0.0,0.0,64,0.00,,,0.03,,2013-03-24 16:02:00,
2013-03-24 10:12:00,16.0,6.0,30.00,West,279,0.0,0.0,64,0.00,,,0.03,,2013-03-24 16:12:00,
2013-03-24 10:22:00,15.0,5.0,30.00,NW,317,0.0,0.0,63,0.00,,,0.03,,2013-03-24 16:22:00,
2013-03-24 10:33:00,13.0,4.0,30.01,NE,34,9.0,17.0,67,0.00,,,0.03,,2013-03-24 16:33:00,
2013-03-24 10:42:00,13.0,4.0,30.01,NE,34,9.0,17.0,67,0.00,,,0.03,,2013-03-24 16:42:00,
2013-03-24 10:52:00,11.0,4.0,30.02,NE,46,4.0,9.0,74,0.00,,,0.03,,2013-03-24 16:52:00,
2013-03-24 11:02:00,14.0,8.0,30.02,NE,46,1.0,2.0,76,0.00,,,0.03,,2013-03-24 17:02:00,
2013-03-24 11:12:00,14.0,8.0,30.02,NE,46,1.0,2.0,76,0.00,,,0.03,,2013-03-24 17:12:00,
2013-03-24 11:22:00,15.0,6.0,29.98,NE,50,2.0,5.0,67,0.00,,,0.03,,2013-03-24 17:22:00,
2013-03-24 11:32:00,13.0,5.0,30.01,ENE,68,1.0,5.0,70,0.00,,,0.03,,2013-03-24 17:32:00,
2013-03-24 11:42:00,13.0,5.0,30.01,ENE,68,1.0,5.0,70,0.00,,,0.03,,2013-03-24 17:42:00,
2013-03-24 11:53:00,12.0,5.0,30.02,East,94,5.0,9.0,73,0.00,,,0.03,,2013-03-24 17:53:00,
2013-03-24 12:02:00,11.0,6.0,30.03,East,83,5.0,11.0,78,0.00,,,0.03,,2013-03-24 18:02:00,
2013-03-24 12:12:00,11.0,6.0,30.03,East,83,5.0,11.0,78,0.00,,,0.03,,2013-03-24 18:12:00,
2013-03-24 12:22:00,12.0,6.0,30.03,ENE,78,4.0,9.0,78,0.00,,,0.03,,2013-03-24 18:22:00,
2013-03-24 12:32:00,12.0,7.0,30.02,East,86,4.0,9.0,79,0.00,,,0.03,,2013-03-24 18:32:00,
2013-03-24 12:42:00,12.0,7.0,30.02,East,86,4.0,9.0,79,0.00,,,0.03,,2013-03-24 18:42:00,
2013-03-24 12:52:00,14.0,8.0,30.02,East,94,3.0,5.0,76,0.00,,,0.03,,2013-03-24 18:52:00,
2013-03-24 13:02:00,14.0,7.0,30.01,ESE,105,2.0,6.0,74,0.00,,,0.03,,2013-03-24 19:02:00,
2013-03-24 13:12:00,14.0,7.0,30.01,ESE,105,2.0,6.0,74,0.00,,,0.03,,2013-03-24 19:12:00,
2013-03-24 13:22:00,16.0,8.0,30.02,ESE,107,3.0,5.0,71,0.00,,,0.03,,2013-03-24 19:22:00,
2013-03-24 13:32:00,16.0,7.0,30.00,SE,134,0.0,4.0,68,0.00,,,0.03,,2013-03-24 19:32:00,
2013-03-24 13:42:00,16.0,7.0,30.00,SE,134,0.0,4.0,68,0.00,,,0.03,,2013-03-24 19:42:00,
2013-03-24 13:53:00,16.0,8.0,30.00,WNW,288,1.0,15.0,69,0.00,,,0.03,,2013-03-24 19:53:00,
2013-03-24 14:02:00,19.0,6.0,29.99,West,268,7.0,14.0,56,0.00,,,0.03,,2013-03-24 20:02:00,
2013-03-24 14:12:00,19.0,6.0,29.99,West,268,7.0,14.0,56,0.00,,,0.03,,2013-03-24 20:12:00,
2013-03-24 14:22:00,15.0,5.0,30.00,ENE,61,6.0,12.0,65,0.00,,,0.03,,2013-03-24 20:22:00,
2013-03-24 14:32:00,15.0,5.0,30.02,North,5,11.0,15.0,65,0.00,,,0.03,,2013-03-24 20:32:00,
2013-03-24 14:42:00,15.0,5.0,30.02,North,5,11.0,15.0,65,0.00,,,0.03,,2013-03-24 20:42:00,
2013-03-24 14:53:00,16.0,6.0,30.02,SW,236,10.0,18.0,65,0.00,,,0.03,,2013-03-24 20:53:00,
2013-03-24 15:02:00,16.0,7.0,30.01,ENE,67,7.0,17.0,68,0.00,,,0.01,,2013-03-24 21:02:00,
2013-03-24 15:12:00,16.0,7.0,30.01,ENE,67,7.0,17.0,68,0.00,,,0.01,,2013-03-24 21:12:00,
2013-03-24 15:22:00,14.0,6.0,30.01,ENE,68,8.0,11.0,71,0.00,,,0.01,,2013-03-24 21:22:00,
2013-03-24 15:33:00,16.0,9.0,30.01,WNW,296,4.0,6.0,72,0.00,,,0.01,,2013-03-24 21:33:00,
2013-03-24 15:43:00,16.0,9.0,30.01,WNW,296,4.0,6.0,72,0.00,,,0.01,,2013-03-24 21:43:00,
2013-03-24 15:53:00,16.0,6.0,30.00,NNW,328,4.0,11.0,64,0.00,,,0.01,,2013-03-24 21:53:00,
2013-03-24 16:02:00,17.0,5.0,30.01,WNW,288,2.0,16.0,59,0.00,,,0.00,,2013-03-24 22:02:00,
2013-03-24 16:13:00,18.0,5.0,30.01,NNE,29,9.0,16.0,55,0.00,,,0.00,,2013-03-24 22:13:00,
2013-03-24 16:23:00,18.0,5.0,30.01,NNE,29,9.0,16.0,55,0.00,,,0.00,,2013-03-24 22:23:00,
2013-03-24 16:33:00,15.0,5.0,30.01,NW,319,4.0,16.0,63,0.00,,,0.00,,2013-03-24 22:33:00,
2013-03-24 16:42:00,15.0,5.0,30.01,NW,319,4.0,16.0,63,0.00,,,0.00,,2013-03-24 22:42:00,
2013-03-24 16:52:00,15.0,6.0,30.01,NE,37,5.0,13.0,67,0.00,,,0.00,,2013-03-24 22:52:00,
2013-03-24 17:02:00,14.0,6.0,30.02,East,80,3.0,9.0,70,0.00,,,0.00,,2013-03-24 23:02:00,
2013-03-24 17:12:00,14.0,6.0,30.02,East,80,3.0,9.0,70,0.00,,,0.00,,2013-03-24 23:12:00,
2013-03-24 17:22:00,15.0,5.0,30.03,West,267,5.0,10.0,65,0.00,,,0.00,,2013-03-24 23:22:00,
2013-03-24 17:32:00,16.0,4.0,30.03,SW,234,5.0,12.0,59,0.00,,,0.00,,2013-03-24 23:32:00,
2013-03-24 17:42:00,16.0,4.0,30.03,SW,234,5.0,12.0,59,0.00,,,0.00,,2013-03-24 23:42:00,
2013-03-24 17:52:00,18.0,5.0,30.03,NE,37,6.0,9.0,57,0.00,,,0.00,,2013-03-24 23:52:00,
2013-03-24 18:02:00,15.0,7.0,30.04,NE,36,0.0,9.0,70,0.00,,,0.00,,2013-03-25 00:02:00,
2013-03-24 18:12:00,15.0,7.0,30.04,NE,36,0.0,9.0,70,0.00,,,0.00,,2013-03-25 00:12:00,
2013-03-24 18:22:00,15.0,5.0,30.04,NE,52,0.0,7.0,65,0.00,,,0.00,,2013-03-25 00:22:00,
2013-03-24 18:32:00,14.0,4.0,30.06,WNW,288,4.0,7.0,65,0.00,,,0.00,,2013-03-25 00:32:00,
2013-03-24 18:42:00,14.0,4.0,30.06,WNW,288,4.0,7.0,65,0.00,,,0.00,,2013-03-25 00:42:00,
2013-03-24 18:53:00,14.0,4.0,30.06,North,5,1.0,13.0,63,0.00,,,0.00,,2013-03-25 00:53:00,
2013-03-24 19:02:00,13.0,3.0,30.07,NW,304,0.0,5.0,63,0.00,,,0.00,,2013-03-25 01:02:00,
2013-03-24 19:12:00,13.0,3.0,30.07,NW,304,0.0,5.0,63,0.00,,,0.00,,2013-03-25 01:12:00,
2013-03-24 19:22:00,11.0,2.0,30.07,NW,306,0.0,0.0,66,0.00,,,0.00,,2013-03-25 01:22:00,
2013-03-24 19:32:00,9.0,1.0,30.06,NW,307,3.0,4.0,68,0.00,,,0.00,,2013-03-25 01:32:00,
2013-03-24 19:42:00,9.0,1.0,30.06,NW,307,3.0,4.0,68,0.00,,,0.00,,2013-03-25 01:42:00,
2013-03-24 19:52:00,8.0,2.0,30.06,NW,307,2.0,3.0,76,0.00,,,0.00,,2013-03-25 01:52:00,
2013-03-24 20:02:00,7.0,-3.0,30.06,NW,307,1.0,3.0,64,0.00,,,0.00,,2013-03-25 02:02:00,
2013-03-24 20:12:00,7.0,-3.0,30.06,NW,307,1.0,3.0,64,0.00,,,0.00,,2013-03-25 02:12:00,
2013-03-24 20:22:00,8.0,-3.0,30.07,NW,307,0.0,4.0,59,0.00,,,0.00,,2013-03-25 02:22:00,
2013-03-24 20:32:00,8.0,-4.0,30.08,NW,307,0.0,2.0,57,0.00,,,0.00,,2013-03-25 02:32:00,
2013-03-24 20:42:00,7.0,-5.0,30.09,NW,305,0.0,4.0,57,0.00,,,0.00,,2013-03-25 02:42:00,
2013-03-24 20:52:00,7.0,-5.0,30.09,NW,305,0.0,4.0,57,0.00,,,0.00,,2013-03-25 02:52:00,
2013-03-24 21:02:00,6.0,-5.0,30.09,NW,304,3.0,4.0,59,0.00,,,0.00,,2013-03-25 03:02:00,
2013-03-24 21:12:00,6.0,-5.0,30.09,NW,304,3.0,4.0,59,0.00,,,0.00,,2013-03-25 03:12:00,
2013-03-24 21:22:00,5.0,-5.0,30.09,WSW,243,4.0,6.0,63,0.00,,,0.00,,2013-03-25 03:22:00,
2013-03-24 21:33:00,5.0,-4.0,30.10,WSW,244,3.0,5.0,66,0.00,,,0.00,,2013-03-25 03:33:00,
2013-03-24 21:42:00,7.0,-2.0,30.11,SSW,203,3.0,7.0,65,0.00,,,0.00,,2013-03-25 03:42:00,
2013-03-24 21:53:00,7.0,-2.0,30.11,SSW,203,3.0,7.0,65,0.00,,,0.00,,2013-03-25 03:53:00,
2013-03-24 22:02:00,7.0,-3.0,30.11,SW,217,4.0,9.0,63,0.00,,,0.00,,2013-03-25 04:02:00,
2013-03-24 22:12:00,7.0,-3.0,30.11,SW,217,4.0,9.0,63,0.00,,,0.00,,2013-03-25 04:12:00,
2013-03-24 22:22:00,7.0,-3.0,30.11,SW,217,3.0,6.0,64,0.00,,,0.00,,2013-03-25 04:22:00,
2013-03-24 22:32:00,8.0,-2.0,30.10,SSW,207,3.0,5.0,63,0.00,,,0.00,,2013-03-25 04:32:00,
2013-03-24 22:42:00,8.0,-2.0,30.10,SSW,207,3.0,5.0,63,0.00,,,0.00,,2013-03-25 04:42:00,
2013-03-24 22:52:00,8.0,-1.0,30.11,SSW,207,2.0,4.0,65,0.00,,,0.00,,2013-03-25 04:52:00,
2013-03-24 23:03:00,7.0,-2.0,30.11,SSW,202,3.0,5.0,66,0.00,,,0.00,,2013-03-25 05:03:00,
2013-03-24 23:12:00,7.0,-2.0,30.11,SSW,202,3.0,5.0,66,0.00,,,0.00,,2013-03-25 05:12:00,
2013-03-24 23:22:00,7.0,-1.0,30.11,SSW,205,3.0,4.0,70,0.00,,,0.00,,2013-03-25 05:22:00,
2013-03-24 23:32:00,8.0,1.0,30.11,SW,215,2.0,5.0,73,0.00,,,0.00,,2013-03-25 05:32:00,
2013-03-24 23:42:00,8.0,1.0,30.11,SW,215,2.0,5.0,73,0.00,,,0.00,,2013-03-25 05:42:00,
2013-03-24 23:52:00,8.0,1.0,30.11,SW,234,0.0,7.0,72,0.00,,,0.00,,2013-03-25 05:52:00,